| time (UTC) | temp C | wind direction | speed KPH | gust KPH | rain 1hr cm | rain 24hr cm | rain mn cm | humidity % | barometer mb |
| 20260503190106 | 19 | 242 | 6.4 | 12.9 | 0.00 | 0.00 | 0.00 | 22 | 960.3 |
| 20260503184547 | 18 | 293 | 4.8 | 19.3 | 0.00 | 0.00 | 0.00 | 22 | 960.4 |
| 20260503183057 | 18 | 321 | 9.7 | 20.9 | 0.00 | 0.00 | 0.00 | 25 | 960.7 |
| 20260503181542 | 18 | 334 | 6.4 | 20.9 | 0.00 | 0.00 | 0.00 | 24 | 960.8 |
| 20260503180049 | 17 | 256 | 12.9 | 29.0 | 0.00 | 0.00 | 0.00 | 24 | 960.8 |
| 20260503174530 | 17 | 15 | 8.0 | 17.7 | 0.00 | 0.00 | 0.00 | 26 | 961.1 |
| 20260503173026 | 17 | 269 | 4.8 | 16.1 | 0.00 | 0.00 | 0.00 | 28 | 961.3 |
| 20260503171532 | 16 | 350 | 8.0 | 17.7 | 0.00 | 0.00 | 0.00 | 28 | 961.5 |
| 20260503130159 | 10 | 9 | 3.2 | 8.0 | 0.00 | 0.00 | 0.00 | 48 | 962.4 |
| 20260503081549 | 3 | 279 | 0.0 | 0.0 | 0.00 | 0.03 | 0.00 | 54 | 959.8 |
| 20260503071512 | 5 | 279 | 0.0 | 0.0 | 0.00 | 0.03 | 0.00 | 55 | 959.3 |
| 20260503054600 | 7 | 26 | 0.0 | 0.0 | 0.00 | 0.03 | 0.00 | 54 | 959.2 |
| 20260503053051 | 6 | 26 | 0.0 | 0.0 | 0.00 | 0.03 | 0.00 | 54 | 959.2 |
| 20260503051557 | 6 | 26 | 0.0 | 0.0 | 0.00 | 0.03 | 0.00 | 58 | 959.3 |
| 20260503050044 | 7 | 26 | 0.0 | 1.6 | 0.00 | 0.03 | 0.00 | 56 | 959.0 |
| 20260503044539 | 8 | 26 | 1.6 | 3.2 | 0.00 | 0.03 | 0.00 | 52 | 958.9 |
| 20260503043036 | 8 | 26 | 0.0 | 4.8 | 0.00 | 0.03 | 0.00 | 50 | 958.9 |
| 20260503041532 | 9 | 26 | 1.6 | 4.8 | 0.00 | 0.03 | 0.00 | 48 | 958.7 |
| 20260503040028 | 10 | 26 | 1.6 | 3.2 | 0.00 | 0.03 | 0.00 | 47 | 958.5 |
| 20260503034524 | 10 | 26 | 0.0 | 0.0 | 0.00 | 0.03 | 0.00 | 43 | 958.3 |
| 20260503033026 | 11 | 26 | 0.0 | 0.0 | 0.00 | 0.03 | 0.00 | 44 | 958.2 |
| 20260503031518 | 11 | 26 | 0.0 | 0.0 | 0.00 | 0.03 | 0.00 | 40 | 958.3 |
| 20260503030012 | 11 | 15 | 0.0 | 8.0 | 0.00 | 0.03 | 0.00 | 41 | 958.2 |
| 20260503024513 | 11 | 36 | 0.0 | 3.2 | 0.00 | 0.03 | 0.00 | 41 | 958.1 |
| 20260503023008 | 12 | 36 | 0.0 | 0.0 | 0.00 | 0.03 | 0.00 | 42 | 958.1 |
| 20260503021505 | 12 | 36 | 0.0 | 0.0 | 0.00 | 0.03 | 0.00 | 42 | 957.8 |
| 20260503020101 | 13 | 36 | 0.0 | 0.0 | 0.00 | 0.03 | 0.00 | 42 | 957.6 |
| 20260503014623 | 13 | 36 | 0.0 | 0.0 | 0.00 | 0.03 | 0.00 | 43 | 957.2 |
| 20260503013053 | 14 | 36 | 1.6 | 4.8 | 0.00 | 0.03 | 0.00 | 38 | 957.0 |
| 20260503011601 | 13 | 16 | 1.6 | 4.8 | 0.00 | 0.03 | 0.00 | 42 | 956.8 |
| 20260503010018 | 14 | 12 | 0.0 | 3.2 | 0.00 | 0.03 | 0.00 | 45 | 956.4 |
| 20260503004524 | 15 | 11 | 0.0 | 1.6 | 0.00 | 0.03 | 0.00 | 44 | 956.3 |
| 20260503003012 | 15 | 11 | 1.6 | 12.9 | 0.00 | 0.03 | 0.00 | 42 | 956.0 |
| 20260503001509 | 15 | 298 | 1.6 | 8.0 | 0.00 | 0.03 | 0.00 | 38 | 955.6 |
| 20260503000008 | 15 | 233 | 0.0 | 4.8 | 0.00 | 0.03 | 0.00 | 44 | 955.5 |
| 20260502234508 | 15 | 233 | 4.8 | 8.0 | 0.00 | 0.03 | 0.00 | 42 | 955.3 |
| 20260502233010 | 15 | 278 | 1.6 | 4.8 | 0.00 | 0.03 | 0.00 | 43 | 955.1 |
| 20260502231505 | 16 | 279 | 0.0 | 3.2 | 0.00 | 0.03 | 0.00 | 47 | 954.8 |
| 20260502230009 | 16 | 279 | 0.0 | 1.6 | 0.00 | 0.03 | 0.00 | 45 | 954.7 |
| 20260502224504 | 17 | 279 | 0.0 | 3.2 | 0.00 | 0.03 | 0.00 | 39 | 954.7 |
| 20260502223002 | 17 | 275 | 4.8 | 11.3 | 0.00 | 0.03 | 0.00 | 37 | 954.7 |
| 20260502221501 | 18 | 306 | 1.6 | 6.4 | 0.00 | 0.03 | 0.00 | 36 | 954.4 |
| 20260502220111 | 18 | 209 | 0.0 | 8.0 | 0.00 | 0.03 | 0.00 | 37 | 954.4 |
| 20260502214557 | 17 | 283 | 0.0 | 6.4 | 0.00 | 0.03 | 0.00 | 37 | 954.2 |
| 20260502213026 | 17 | 315 | 1.6 | 4.8 | 0.00 | 0.03 | 0.00 | 36 | 954.1 |
| 20260502211536 | 17 | 313 | 1.6 | 4.8 | 0.00 | 0.03 | 0.00 | 37 | 954.3 |
| 20260502210017 | 16 | 270 | 3.2 | 14.5 | 0.00 | 0.03 | 0.00 | 37 | 954.4 |
| 20260502204515 | 16 | 302 | 0.0 | 6.4 | 0.00 | 0.03 | 0.00 | 36 | 954.3 |
| 20260502203015 | 16 | 279 | 3.2 | 11.3 | 0.00 | 0.03 | 0.00 | 36 | 954.5 |
| 20260502201512 | 16 | 152 | 0.0 | 9.7 | 0.00 | 0.03 | 0.00 | 38 | 954.4 |
| 20260502200015 | 16 | 213 | 3.2 | 9.7 | 0.00 | 0.03 | 0.00 | 38 | 954.5 |
| 20260502194508 | 16 | 65 | 4.8 | 12.9 | 0.00 | 0.03 | 0.00 | 40 | 954.8 |
| 20260502193005 | 16 | 257 | 3.2 | 8.0 | 0.00 | 0.03 | 0.00 | 38 | 955.1 |
| 20260502191502 | 15 | 63 | 4.8 | 9.7 | 0.00 | 0.03 | 0.00 | 37 | 955.3 |